Total_Precipitation_Accumulation
0.58 0.56 0.63 0.75 0.80 0.85 0.83 0.75 0.69 0.67 0.68 0.75 0.86 0.86 0.84 0.82 0.77 0.73 0.68 0.66 0.66 0.64 0.66 0.70 0.69 0.69 0.74 0.68 0.62 0.56 0.53 0.57 0.55 0.19 0.09 0.11 0.19 0.24 0.25 0.24 0.26 0.25 0.22
0.53 0.61 0.60 0.69 0.81 0.84 0.77 0.73 0.74 0.69 0.67 0.69 0.79 0.91 0.91 0.87 0.82 0.78 0.76 0.81 0.87 0.82 0.75 0.74 0.73 0.74 0.77 0.77 0.75 0.67 0.55 0.47 0.51 0.36 0.15 0.12 0.17 0.26 0.32 0.30 0.28 0.26 0.22
0.45 0.57 0.66 0.72 0.79 0.85 0.80 0.72 0.74 0.75 0.71 0.68 0.74 0.89 0.97 0.97 0.92 0.83 0.81 0.85 0.95 1.03 1.01 0.98 0.88 0.82 0.82 0.79 0.80 0.75 0.63 0.53 0.49 0.46 0.28 0.18 0.19 0.28 0.40 0.41 0.36 0.31 0.26
0.33 0.48 0.58 0.67 0.74 0.80 0.83 0.81 0.78 0.75 0.74 0.72 0.71 0.77 0.89 1.00 1.08 1.07 1.06 1.00 1.00 1.04 1.09 1.10 1.06 1.05 0.97 0.90 0.87 0.82 0.77 0.73 0.64 0.61 0.48 0.33 0.28 0.32 0.48 0.55 0.47 0.38 0.33
0.23 0.34 0.48 0.57 0.66 0.76 0.82 0.86 0.88 0.87 0.77 0.73 0.70 0.69 0.75 1.02 1.38 1.37 1.26 1.17 1.03 0.94 0.89 0.91 0.98 1.10 1.14 1.17 1.18 1.09 1.05 1.10 1.01 0.91 0.75 0.59 0.47 0.49 0.58 0.62 0.68 0.58 0.47
0.19 0.22 0.35 0.48 0.60 0.70 0.77 0.86 0.90 0.91 0.89 0.81 0.72 0.66 0.69 0.91 1.33 1.37 1.09 0.89 0.76 0.74 0.73 0.70 0.73 0.89 0.97 1.06 1.17 1.17 1.22 1.37 1.41 1.29 1.06 0.86 0.62 0.56 0.62 0.76 0.88 0.92 0.76
0.17 0.19 0.26 0.35 0.49 0.60 0.69 0.79 0.91 0.91 0.89 0.87 0.77 0.65 0.58 0.68 1.07 1.15 0.94 0.68 0.56 0.54 0.56 0.56 0.57 0.64 0.75 0.74 0.85 0.93 1.00 1.15 1.35 1.43 1.36 1.02 0.75 0.60 0.74 0.89 0.92 0.99 0.87
0.17 0.17 0.20 0.26 0.36 0.50 0.65 0.73 0.82 0.91 0.89 0.83 0.79 0.70 0.61 0.56 0.89 1.06 0.89 0.61 0.50 0.45 0.46 0.45 0.43 0.47 0.59 0.72 0.79 0.79 0.77 0.86 1.13 1.35 1.47 1.27 1.02 0.88 1.00 1.22 1.31 1.29 1.09
0.16 0.16 0.16 0.18 0.27 0.41 0.53 0.65 0.73 0.83 0.86 0.83 0.75 0.66 0.61 0.55 0.75 1.05 1.00 0.64 0.51 0.44 0.43 0.43 0.39 0.36 0.55 0.74 0.75 0.68 0.60 0.63 0.78 1.07 1.27 1.31 1.29 1.33 1.41 1.64 1.79 1.72 1.54
0.14 0.13 0.13 0.15 0.19 0.31 0.43 0.54 0.67 0.75 0.81 0.81 0.77 0.66 0.58 0.52 0.63 0.99 1.15 0.73 0.54 0.45 0.41 0.40 0.46 0.49 0.62 0.69 0.65 0.66 0.68 0.59 0.57 0.64 0.74 0.83 0.91 0.99 1.22 1.47 1.65 1.73 1.70
0.14 0.13 0.11 0.12 0.15 0.22 0.36 0.49 0.65 0.74 0.79 0.78 0.71 0.66 0.56 0.52 0.54 0.79 1.14 0.93 0.63 0.53 0.49 0.43 0.41 0.51 0.56 0.60 0.63 0.63 0.72 0.66 0.61 0.70 0.72 0.68 0.72 0.82 0.96 1.19 1.46 1.64 1.77
0.13 0.13 0.12 0.11 0.13 0.19 0.34 0.47 0.59 0.71 0.79 0.79 0.70 0.68 0.63 0.55 0.56 0.70 0.89 0.94 0.78 0.57 0.50 0.42 0.42 0.51 0.56 0.62 0.61 0.64 0.69 0.68 0.65 0.67 0.62 0.59 0.64 0.74 0.85 1.02 1.23 1.40 1.48
0.14 0.13 0.13 0.13 0.14 0.19 0.29 0.43 0.59 0.65 0.74 0.78 0.67 0.62 0.63 0.59 0.60 0.74 0.72 0.73 0.76 0.67 0.65 0.66 0.59 0.61 0.61 0.56 0.57 0.60 0.59 0.57 0.62 0.64 0.56 0.49 0.53 0.66 0.74 0.85 0.98 1.16 1.27
0.14 0.13 0.14 0.16 0.18 0.21 0.27 0.37 0.51 0.60 0.69 0.77 0.68 0.56 0.56 0.60 0.71 0.84 0.74 0.65 0.71 0.75 0.76 0.77 0.74 0.70 0.61 0.55 0.53 0.47 0.44 0.49 0.54 0.55 0.49 0.43 0.44 0.54 0.66 0.78 0.92 1.06 1.23
0.15 0.15 0.16 0.19 0.21 0.25 0.31 0.37 0.42 0.49 0.62 0.75 0.67 0.60 0.66 0.79 0.86 0.94 0.86 0.82 0.85 0.89 0.86 0.81 0.72 0.68 0.67 0.57 0.49 0.42 0.40 0.44 0.47 0.43 0.44 0.44 0.46 0.52 0.59 0.69 0.89 1.04 1.18
0.17 0.18 0.20 0.22 0.24 0.27 0.34 0.41 0.46 0.48 0.52 0.52 0.56 0.59 0.59 0.79 0.83 0.74 0.74 0.76 0.86 0.95 0.90 0.82 0.65 0.56 0.56 0.52 0.48 0.44 0.40 0.38 0.37 0.38 0.43 0.45 0.48 0.53 0.59 0.65 0.80 0.98 1.08
0.20 0.21 0.24 0.25 0.25 0.27 0.32 0.40 0.47 0.51 0.53 0.51 0.52 0.54 0.57 0.69 0.73 0.69 0.69 0.68 0.69 0.71 0.71 0.60 0.49 0.45 0.43 0.43 0.43 0.39 0.36 0.33 0.35 0.39 0.40 0.40 0.44 0.49 0.55 0.61 0.69 0.83 0.96
0.22 0.26 0.28 0.28 0.28 0.30 0.35 0.40 0.46 0.51 0.56 0.57 0.57 0.59 0.59 0.61 0.65 0.68 0.71 0.77 0.75 0.63 0.52 0.48 0.46 0.43 0.42 0.42 0.40 0.39 0.37 0.36 0.38 0.38 0.37 0.36 0.40 0.47 0.52 0.54 0.60 0.74 0.86
0.25 0.28 0.31 0.33 0.32 0.34 0.38 0.43 0.46 0.49 0.50 0.53 0.57 0.70 0.74 0.69 0.68 0.70 0.68 0.64 0.59 0.54 0.49 0.45 0.44 0.46 0.45 0.42 0.39 0.38 0.38 0.37 0.35 0.36 0.35 0.34 0.36 0.44 0.48 0.49 0.54 0.65 0.80
0.27 0.34 0.36 0.38 0.37 0.39 0.42 0.46 0.49 0.53 0.53 0.53 0.53 0.58 0.73 0.79 0.73 0.73 0.67 0.58 0.54 0.50 0.46 0.45 0.44 0.46 0.46 0.44 0.42 0.40 0.40 0.38 0.36 0.35 0.33 0.32 0.33 0.39 0.43 0.45 0.51 0.58 0.67
0.31 0.34 0.40 0.41 0.40 0.43 0.47 0.51 0.54 0.59 0.57 0.53 0.48 0.49 0.67 0.72 0.62 0.56 0.61 0.60 0.56 0.51 0.47 0.48 0.47 0.46 0.45 0.44 0.43 0.42 0.41 0.37 0.34 0.33 0.30 0.28 0.30 0.33 0.34 0.39 0.45 0.50 0.57
0.34 0.36 0.41 0.43 0.46 0.49 0.53 0.56 0.59 0.61 0.57 0.53 0.50 0.53 0.60 0.54 0.48 0.48 0.52 0.54 0.54 0.53 0.50 0.52 0.51 0.46 0.45 0.46 0.46 0.46 0.44 0.38 0.34 0.32 0.31 0.28 0.27 0.28 0.29 0.33 0.37 0.43 0.50
0.36 0.41 0.46 0.48 0.50 0.55 0.58 0.55 0.57 0.60 0.58 0.53 0.54 0.55 0.57 0.54 0.49 0.45 0.48 0.51 0.54 0.54 0.50 0.51 0.51 0.46 0.41 0.41 0.43 0.47 0.47 0.40 0.35 0.34 0.36 0.33 0.29 0.27 0.27 0.28 0.30 0.37 0.47
0.39 0.44 0.51 0.54 0.55 0.55 0.59 0.59 0.58 0.61 0.61 0.58 0.55 0.53 0.55 0.54 0.51 0.46 0.45 0.48 0.52 0.51 0.48 0.50 0.49 0.44 0.41 0.39 0.37 0.37 0.37 0.37 0.39 0.41 0.38 0.37 0.33 0.29 0.30 0.31 0.30 0.35 0.44
0.44 0.48 0.54 0.59 0.61 0.61 0.63 0.62 0.62 0.63 0.64 0.59 0.55 0.54 0.53 0.53 0.53 0.49 0.45 0.46 0.49 0.47 0.44 0.46 0.49 0.47 0.42 0.38 0.34 0.32 0.35 0.40 0.45 0.52 0.59 0.55 0.43 0.34 0.33 0.34 0.34 0.35 0.42
0.46 0.49 0.56 0.61 0.63 0.66 0.68 0.69 0.67 0.66 0.65 0.60 0.56 0.55 0.56 0.56 0.55 0.52 0.49 0.49 0.51 0.49 0.46 0.46 0.47 0.46 0.42 0.38 0.35 0.34 0.37 0.40 0.46 0.53 0.65 0.71 0.56 0.41 0.38 0.40 0.37 0.38 0.42